Time,TemperatureF,DewpointF,PressureIn,WindDirection,WindDirectionDegrees,WindSpeedMPH,WindSpeedGustMPH,Humidity,HourlyPrecipIn,Conditions,Clouds,dailyrainin,SoftwareType,DateUTC
2013-01-28 00:00:00,71.4,63.1,30.27,ENE,66,3.0,6.0,75,0.00,,,0.00,meteohub,2013-01-28 05:00:00,
2013-01-28 00:02:00,71.4,63.1,30.27,ESE,115,1.0,9.0,75,0.00,,,0.00,meteohub,2013-01-28 05:02:00,
2013-01-28 00:03:00,71.4,63.1,30.27,ENE,59,1.0,9.0,75,0.00,,,0.00,meteohub,2013-01-28 05:03:00,
2013-01-28 00:08:00,71.4,63.1,30.27,East,98,3.0,9.0,75,0.00,,,0.00,meteohub,2013-01-28 05:08:00,
2013-01-28 00:13:00,71.4,63.1,30.27,East,91,3.0,10.0,75,0.00,,,0.00,meteohub,2013-01-28 05:13:00,
2013-01-28 00:18:00,71.4,63.1,30.27,ESE,112,2.0,10.0,75,0.00,,,0.00,meteohub,2013-01-28 05:18:00,
2013-01-28 00:23:00,71.4,63.1,30.27,ESE,115,3.0,10.0,75,0.00,,,0.00,meteohub,2013-01-28 05:23:00,
2013-01-28 00:28:00,71.4,63.1,30.27,ESE,112,0.0,6.0,75,0.00,,,0.00,meteohub,2013-01-28 05:28:00,
2013-01-28 00:33:00,71.4,63.5,30.27,ENE,74,1.0,6.0,76,0.00,,,0.00,meteohub,2013-01-28 05:33:00,
2013-01-28 00:38:00,71.4,63.1,30.27,ESE,112,1.0,5.0,75,0.00,,,0.00,meteohub,2013-01-28 05:38:00,
2013-01-28 00:43:00,71.4,63.1,30.27,ESE,115,0.0,7.0,75,0.00,,,0.00,meteohub,2013-01-28 05:43:00,
2013-01-28 00:48:00,71.2,63.0,30.27,ESE,119,0.0,7.0,75,0.00,,,0.00,meteohub,2013-01-28 05:48:00,
2013-01-28 00:53:00,71.2,62.6,30.27,East,92,2.0,7.0,74,0.00,,,0.00,meteohub,2013-01-28 05:53:00,
2013-01-28 00:58:00,71.2,62.6,30.27,North,5,0.0,6.0,74,0.00,,,0.00,meteohub,2013-01-28 05:58:00,
2013-01-28 01:03:00,71.2,62.6,30.27,NE,38,2.0,6.0,74,0.00,,,0.00,meteohub,2013-01-28 06:03:00,
2013-01-28 01:08:00,71.4,62.2,30.27,SSE,148,1.0,5.0,73,0.00,,,0.00,meteohub,2013-01-28 06:08:00,
2013-01-28 01:13:00,71.4,61.9,30.27,East,88,2.0,5.0,72,0.00,,,0.00,meteohub,2013-01-28 06:13:00,
2013-01-28 01:18:00,71.4,61.5,30.27,East,84,1.0,5.0,71,0.00,,,0.00,meteohub,2013-01-28 06:18:00,
2013-01-28 01:23:00,71.4,61.5,30.26,ESE,104,2.0,8.0,71,0.00,,,0.00,meteohub,2013-01-28 06:23:00,
2013-01-28 01:28:00,71.4,61.5,30.26,ESE,109,0.0,8.0,71,0.00,,,0.00,meteohub,2013-01-28 06:28:00,
2013-01-28 01:33:00,71.4,61.5,30.26,East,82,1.0,8.0,71,0.00,,,0.00,meteohub,2013-01-28 06:33:00,
2013-01-28 01:39:00,71.4,61.5,30.26,ESE,121,1.0,6.0,71,0.00,,,0.00,meteohub,2013-01-28 06:39:00,
2013-01-28 01:44:00,71.4,61.5,30.26,North,5,1.0,6.0,71,0.00,,,0.00,meteohub,2013-01-28 06:44:00,
2013-01-28 01:49:00,71.4,61.2,30.26,East,94,5.0,9.0,70,0.00,,,0.00,meteohub,2013-01-28 06:49:00,
2013-01-28 01:54:00,71.6,61.3,30.26,East,99,0.0,9.0,70,0.00,,,0.00,meteohub,2013-01-28 06:54:00,
2013-01-28 01:59:00,71.6,61.3,30.25,East,87,2.0,9.0,70,0.00,,,0.00,meteohub,2013-01-28 06:59:00,
2013-01-28 02:04:00,71.4,61.5,30.25,ENE,78,1.0,9.0,71,0.00,,,0.00,meteohub,2013-01-28 07:04:00,
2013-01-28 02:09:00,71.4,61.2,30.25,East,99,0.0,8.0,70,0.00,,,0.00,meteohub,2013-01-28 07:09:00,
2013-01-28 02:14:00,71.6,61.3,30.25,East,93,0.0,10.0,70,0.00,,,0.00,meteohub,2013-01-28 07:14:00,
2013-01-28 02:19:00,71.6,61.3,30.25,East,94,2.0,10.0,70,0.00,,,0.00,meteohub,2013-01-28 07:19:00,
2013-01-28 02:24:00,71.6,60.8,30.25,NNE,32,1.0,10.0,69,0.00,,,0.00,meteohub,2013-01-28 07:24:00,
2013-01-28 02:29:00,71.6,61.7,30.25,East,90,1.0,6.0,71,0.00,,,0.00,meteohub,2013-01-28 07:29:00,
2013-01-28 02:34:00,71.6,61.3,30.25,SSE,167,1.0,7.0,70,0.00,,,0.00,meteohub,2013-01-28 07:34:00,
2013-01-28 02:39:00,71.8,62.2,30.25,East,92,1.0,7.0,72,0.00,,,0.00,meteohub,2013-01-28 07:39:00,
2013-01-28 02:44:00,71.6,62.1,30.25,SSE,168,1.0,7.0,72,0.00,,,0.00,meteohub,2013-01-28 07:44:00,
2013-01-28 02:49:00,71.6,62.1,30.25,ESE,105,0.0,5.0,72,0.00,,,0.00,meteohub,2013-01-28 07:49:00,
2013-01-28 02:54:00,71.6,62.4,30.25,SSE,152,0.0,6.0,73,0.00,,,0.00,meteohub,2013-01-28 07:54:00,
2013-01-28 02:59:00,71.6,62.1,30.25,SSE,155,2.0,6.0,72,0.00,,,0.00,meteohub,2013-01-28 07:59:00,
2013-01-28 03:04:00,71.8,62.6,30.25,East,98,0.0,6.0,73,0.00,,,0.00,meteohub,2013-01-28 08:04:00,
2013-01-28 03:09:00,71.8,62.6,30.25,ENE,68,1.0,5.0,73,0.00,,,0.00,meteohub,2013-01-28 08:09:00,
2013-01-28 03:14:00,71.8,63.0,30.25,SSE,150,0.0,5.0,74,0.00,,,0.00,meteohub,2013-01-28 08:14:00,
2013-01-28 03:19:00,71.8,63.5,30.25,East,101,0.0,5.0,75,0.00,,,0.00,meteohub,2013-01-28 08:19:00,
2013-01-28 03:24:00,71.8,63.9,30.25,ESE,105,0.0,5.0,76,0.00,,,0.00,meteohub,2013-01-28 08:24:00,
2013-01-28 03:29:00,71.8,63.9,30.25,East,89,0.0,5.0,76,0.00,,,0.00,meteohub,2013-01-28 08:29:00,
2013-01-28 03:34:00,71.8,63.5,30.25,East,92,0.0,4.0,75,0.00,,,0.00,meteohub,2013-01-28 08:34:00,
2013-01-28 03:39:00,71.8,63.0,30.25,East,84,1.0,5.0,74,0.00,,,0.00,meteohub,2013-01-28 08:39:00,
2013-01-28 03:44:00,71.8,62.6,30.25,East,98,0.0,6.0,73,0.00,,,0.00,meteohub,2013-01-28 08:44:00,
2013-01-28 03:49:00,71.6,62.4,30.25,East,86,0.0,6.0,73,0.00,,,0.00,meteohub,2013-01-28 08:49:00,
2013-01-28 03:54:00,71.4,62.8,30.25,East,82,2.0,6.0,74,0.00,,,0.00,meteohub,2013-01-28 08:54:00,
2013-01-28 03:59:00,71.4,61.9,30.25,ESE,119,0.0,4.0,72,0.00,,,0.00,meteohub,2013-01-28 08:59:00,
2013-01-28 04:04:00,71.4,61.9,30.25,SE,132,2.0,4.0,72,0.00,,,0.00,meteohub,2013-01-28 09:04:00,
2013-01-28 04:09:00,71.4,61.9,30.25,East,94,0.0,5.0,72,0.00,,,0.00,meteohub,2013-01-28 09:09:00,
2013-01-28 04:14:00,71.4,61.5,30.25,SE,146,0.0,5.0,71,0.00,,,0.00,meteohub,2013-01-28 09:14:00,
2013-01-28 04:19:00,71.4,61.5,30.25,ESE,102,0.0,5.0,71,0.00,,,0.00,meteohub,2013-01-28 09:19:00,
2013-01-28 04:24:00,71.4,61.9,30.25,SE,141,1.0,4.0,72,0.00,,,0.00,meteohub,2013-01-28 09:24:00,
2013-01-28 04:29:00,71.6,61.3,30.25,NNE,33,0.0,4.0,70,0.00,,,0.00,meteohub,2013-01-28 09:29:00,
2013-01-28 04:34:00,71.6,62.1,30.25,ENE,74,2.0,5.0,72,0.00,,,0.00,meteohub,2013-01-28 09:34:00,
2013-01-28 04:39:00,71.4,62.2,30.25,ESE,107,0.0,5.0,73,0.00,,,0.00,meteohub,2013-01-28 09:39:00,
2013-01-28 04:44:00,71.6,62.1,30.25,ENE,70,4.0,8.0,72,0.00,,,0.00,meteohub,2013-01-28 09:44:00,
2013-01-28 04:50:00,71.4,62.2,30.25,East,98,0.0,8.0,73,0.00,,,0.00,meteohub,2013-01-28 09:50:00,
2013-01-28 04:55:00,71.4,61.9,30.25,East,83,0.0,8.0,72,0.00,,,0.00,meteohub,2013-01-28 09:55:00,
2013-01-28 05:00:00,71.4,62.2,30.25,NE,53,0.0,6.0,73,0.00,,,0.00,meteohub,2013-01-28 10:00:00,
2013-01-28 05:05:00,71.4,62.8,30.25,ESE,104,0.0,7.0,74,0.00,,,0.00,meteohub,2013-01-28 10:05:00,
2013-01-28 05:10:00,71.4,62.2,30.25,NE,55,1.0,7.0,73,0.00,,,0.00,meteohub,2013-01-28 10:10:00,
2013-01-28 05:15:00,71.4,62.8,30.25,ENE,77,2.0,7.0,74,0.00,,,0.00,meteohub,2013-01-28 10:15:00,
2013-01-28 05:20:00,71.2,62.6,30.25,SE,130,0.0,6.0,74,0.00,,,0.00,meteohub,2013-01-28 10:20:00,
2013-01-28 05:25:00,71.2,62.6,30.25,East,89,2.0,6.0,74,0.00,,,0.00,meteohub,2013-01-28 10:25:00,
2013-01-28 05:30:00,71.4,62.8,30.25,ESE,114,3.0,7.0,74,0.00,,,0.00,meteohub,2013-01-28 10:30:00,
2013-01-28 05:35:00,71.4,62.2,30.25,SSW,207,1.0,7.0,73,0.00,,,0.00,meteohub,2013-01-28 10:35:00,
2013-01-28 05:40:00,71.4,62.8,30.25,NNE,30,0.0,7.0,74,0.00,,,0.00,meteohub,2013-01-28 10:40:00,
2013-01-28 05:45:00,71.4,63.1,30.25,East,86,1.0,9.0,75,0.00,,,0.00,meteohub,2013-01-28 10:45:00,
2013-01-28 05:50:00,71.4,63.1,30.26,East,93,1.0,9.0,75,0.00,,,0.00,meteohub,2013-01-28 10:50:00,
2013-01-28 05:55:00,71.4,62.8,30.26,ESE,107,1.0,9.0,74,0.00,,,0.00,meteohub,2013-01-28 10:55:00,
2013-01-28 06:00:00,71.6,63.3,30.26,East,97,0.0,6.0,75,0.00,,,0.00,meteohub,2013-01-28 11:00:00,
2013-01-28 06:05:00,71.6,63.3,30.26,East,88,0.0,6.0,75,0.00,,,0.00,meteohub,2013-01-28 11:05:00,
2013-01-28 06:10:00,71.4,63.1,30.26,ESE,117,1.0,6.0,75,0.00,,,0.00,meteohub,2013-01-28 11:10:00,
2013-01-28 06:15:00,71.4,62.8,30.26,SE,128,0.0,6.0,74,0.00,,,0.00,meteohub,2013-01-28 11:15:00,
2013-01-28 06:20:00,71.4,62.2,30.26,SE,146,1.0,6.0,73,0.00,,,0.00,meteohub,2013-01-28 11:20:00,
2013-01-28 06:25:00,71.4,63.1,30.27,NE,40,1.0,8.0,75,0.00,,,0.00,meteohub,2013-01-28 11:25:00,
2013-01-28 06:30:00,71.6,63.0,30.27,ESE,109,0.0,8.0,74,0.00,,,0.00,meteohub,2013-01-28 11:30:00,
2013-01-28 06:35:00,71.6,63.3,30.27,East,79,1.0,8.0,75,0.00,,,0.00,meteohub,2013-01-28 11:35:00,
2013-01-28 06:40:00,71.6,63.7,30.27,ESE,105,5.0,7.0,76,0.00,,,0.00,meteohub,2013-01-28 11:40:00,
2013-01-28 06:45:00,71.6,63.3,30.27,ENE,66,0.0,7.0,75,0.00,,,0.00,meteohub,2013-01-28 11:45:00,
2013-01-28 06:50:00,71.6,63.3,30.27,North,0,1.0,7.0,75,0.00,,,0.00,meteohub,2013-01-28 11:50:00,
2013-01-28 06:55:00,71.6,63.7,30.27,South,176,3.0,7.0,76,0.00,,,0.00,meteohub,2013-01-28 11:55:00,
2013-01-28 07:00:00,71.6,63.3,30.27,ESE,111,0.0,7.0,75,0.00,,,0.00,meteohub,2013-01-28 12:00:00,
2013-01-28 07:05:00,71.4,63.1,30.27,East,80,0.0,6.0,75,0.00,,,0.00,meteohub,2013-01-28 12:05:00,
2013-01-28 07:10:00,71.4,62.8,30.28,NE,51,1.0,6.0,74,0.00,,,0.00,meteohub,2013-01-28 12:10:00,
2013-01-28 07:15:00,71.4,62.2,30.28,South,184,4.0,6.0,73,0.00,,,0.00,meteohub,2013-01-28 12:15:00,
2013-01-28 07:20:00,71.4,63.1,30.28,ENE,59,1.0,7.0,75,0.00,,,0.00,meteohub,2013-01-28 12:20:00,
2013-01-28 07:25:00,71.6,63.3,30.28,ESE,120,1.0,7.0,75,0.00,,,0.00,meteohub,2013-01-28 12:25:00,
2013-01-28 07:30:00,71.6,63.3,30.28,East,101,0.0,7.0,75,0.00,,,0.00,meteohub,2013-01-28 12:30:00,
2013-01-28 07:35:00,71.8,63.5,30.28,SE,125,2.0,5.0,75,0.00,,,0.00,meteohub,2013-01-28 12:35:00,
2013-01-28 07:40:00,71.8,63.5,30.28,South,177,1.0,8.0,75,0.00,,,0.00,meteohub,2013-01-28 12:40:00,
2013-01-28 07:45:00,72.0,62.8,30.28,ENE,72,2.0,8.0,73,0.00,,,0.00,meteohub,2013-01-28 12:45:00,
2013-01-28 07:50:00,72.1,63.0,30.28,East,90,0.0,8.0,73,0.00,,,0.00,meteohub,2013-01-28 12:50:00,
2013-01-28 07:55:00,72.1,63.3,30.28,East,97,0.0,8.0,74,0.00,,,0.00,meteohub,2013-01-28 12:55:00,
2013-01-28 08:00:00,72.3,63.5,30.28,ESE,102,1.0,8.0,74,0.00,,,0.00,meteohub,2013-01-28 13:00:00,
2013-01-28 08:05:00,72.7,64.2,30.28,East,82,3.0,5.0,75,0.00,,,0.00,meteohub,2013-01-28 13:05:00,
2013-01-28 08:10:00,72.7,63.9,30.28,SE,134,0.0,5.0,74,0.00,,,0.00,meteohub,2013-01-28 13:10:00,
2013-01-28 08:15:00,72.9,64.0,30.29,East,83,1.0,5.0,74,0.00,,,0.00,meteohub,2013-01-28 13:15:00,
2013-01-28 08:20:00,73.4,63.5,30.29,NNE,20,1.0,5.0,71,0.00,,,0.00,meteohub,2013-01-28 13:20:00,
2013-01-28 08:26:00,73.8,63.7,30.29,SE,134,1.0,5.0,71,0.00,,,0.00,meteohub,2013-01-28 13:26:00,
2013-01-28 08:31:00,74.1,63.7,30.29,ESE,107,0.0,5.0,70,0.00,,,0.00,meteohub,2013-01-28 13:31:00,
2013-01-28 08:36:00,74.3,64.2,30.29,East,96,2.0,8.0,71,0.00,,,0.00,meteohub,2013-01-28 13:36:00,
2013-01-28 08:41:00,74.7,64.2,30.29,ESE,121,4.0,8.0,70,0.00,,,0.00,meteohub,2013-01-28 13:41:00,
2013-01-28 08:46:00,74.8,64.8,30.29,SSE,150,1.0,8.0,71,0.00,,,0.00,meteohub,2013-01-28 13:46:00,
2013-01-28 08:51:00,75.4,64.6,30.29,East,98,2.0,8.0,69,0.00,,,0.00,meteohub,2013-01-28 13:51:00,
2013-01-28 08:56:00,75.6,64.8,30.30,SE,137,1.0,9.0,69,0.00,,,0.00,meteohub,2013-01-28 13:56:00,
2013-01-28 09:01:00,75.4,64.6,30.30,SE,139,0.0,9.0,69,0.00,,,0.00,meteohub,2013-01-28 14:01:00,
2013-01-28 09:06:00,75.4,64.9,30.30,ENE,71,3.0,9.0,70,0.00,,,0.00,meteohub,2013-01-28 14:06:00,
2013-01-28 09:11:00,75.6,63.9,30.30,ESE,103,1.0,9.0,67,0.00,,,0.00,meteohub,2013-01-28 14:11:00,
2013-01-28 09:16:00,75.6,64.8,30.30,SSE,157,3.0,9.0,69,0.00,,,0.00,meteohub,2013-01-28 14:16:00,
2013-01-28 09:21:00,75.7,65.3,30.30,SE,135,0.0,9.0,70,0.00,,,0.00,meteohub,2013-01-28 14:21:00,
2013-01-28 09:26:00,75.9,65.5,30.30,East,88,3.0,8.0,70,0.00,,,0.00,meteohub,2013-01-28 14:26:00,
2013-01-28 09:31:00,76.3,65.3,30.31,South,184,3.0,8.0,69,0.00,,,0.00,meteohub,2013-01-28 14:31:00,
2013-01-28 09:36:00,76.6,65.3,30.31,ENE,65,0.0,8.0,68,0.00,,,0.00,meteohub,2013-01-28 14:36:00,
2013-01-28 09:41:00,77.2,65.3,30.31,East,90,0.0,7.0,67,0.00,,,0.00,meteohub,2013-01-28 14:41:00,
2013-01-28 09:46:00,77.4,65.1,30.31,SSE,153,3.0,6.0,66,0.00,,,0.00,meteohub,2013-01-28 14:46:00,
2013-01-28 09:51:00,77.4,65.1,30.31,NNW,335,3.0,7.0,66,0.00,,,0.00,meteohub,2013-01-28 14:51:00,
2013-01-28 09:56:00,77.2,64.9,30.31,East,82,0.0,8.0,66,0.00,,,0.00,meteohub,2013-01-28 14:56:00,
2013-01-28 10:01:00,77.0,65.1,30.32,SSE,164,2.0,8.0,67,0.00,,,0.00,meteohub,2013-01-28 15:01:00,
2013-01-28 10:06:00,77.2,65.8,30.32,SE,127,2.0,8.0,68,0.00,,,0.00,meteohub,2013-01-28 15:06:00,
2013-01-28 10:11:00,77.4,65.5,30.32,ESE,103,0.0,8.0,67,0.00,,,0.00,meteohub,2013-01-28 15:11:00,
2013-01-28 10:16:00,77.5,65.3,30.32,SSE,168,0.0,8.0,66,0.00,,,0.00,meteohub,2013-01-28 15:16:00,
2013-01-28 10:21:00,77.9,65.1,30.32,SSW,212,2.0,8.0,65,0.00,,,0.00,meteohub,2013-01-28 15:21:00,
2013-01-28 10:26:00,78.1,64.9,30.32,East,101,1.0,8.0,64,0.00,,,0.00,meteohub,2013-01-28 15:26:00,
2013-01-28 10:31:00,78.3,65.5,30.32,SE,145,3.0,8.0,65,0.00,,,0.00,meteohub,2013-01-28 15:31:00,
2013-01-28 10:36:00,77.7,64.9,30.32,SSE,155,4.0,8.0,65,0.00,,,0.00,meteohub,2013-01-28 15:36:00,
2013-01-28 10:41:00,77.7,65.5,30.32,ESE,120,1.0,8.0,66,0.00,,,0.00,meteohub,2013-01-28 15:41:00,
2013-01-28 10:46:00,78.3,66.0,30.32,SSE,163,3.0,8.0,66,0.00,,,0.00,meteohub,2013-01-28 15:46:00,
2013-01-28 10:51:00,78.3,65.1,30.32,ESE,102,2.0,10.0,64,0.00,,,0.00,meteohub,2013-01-28 15:51:00,
2013-01-28 10:56:00,78.3,65.5,30.32,ESE,105,1.0,10.0,65,0.00,,,0.00,meteohub,2013-01-28 15:56:00,
2013-01-28 11:01:00,78.4,65.3,30.32,SE,142,3.0,10.0,64,0.00,,,0.00,meteohub,2013-01-28 16:01:00,
2013-01-28 11:06:00,78.1,65.3,30.32,SSE,150,1.0,9.0,65,0.00,,,0.00,meteohub,2013-01-28 16:06:00,
2013-01-28 11:11:00,77.7,64.9,30.32,SE,124,0.0,7.0,65,0.00,,,0.00,meteohub,2013-01-28 16:11:00,
2013-01-28 11:16:00,77.5,64.8,30.32,East,88,0.0,7.0,65,0.00,,,0.00,meteohub,2013-01-28 16:16:00,
2013-01-28 11:21:00,77.5,65.7,30.32,ESE,123,1.0,8.0,67,0.00,,,0.00,meteohub,2013-01-28 16:21:00,
2013-01-28 11:26:00,78.1,66.2,30.32,NE,52,1.0,8.0,67,0.00,,,0.00,meteohub,2013-01-28 16:26:00,
2013-01-28 11:31:00,78.4,65.7,30.31,SSE,158,7.0,8.0,65,0.00,,,0.00,meteohub,2013-01-28 16:31:00,
2013-01-28 11:36:00,78.6,64.9,30.31,SE,128,1.0,10.0,63,0.00,,,0.00,meteohub,2013-01-28 16:36:00,
2013-01-28 11:41:00,78.6,65.5,30.31,SSE,163,1.0,10.0,64,0.00,,,0.00,meteohub,2013-01-28 16:41:00,
2013-01-28 11:46:00,79.0,65.8,30.31,ESE,118,3.0,10.0,64,0.00,,,0.00,meteohub,2013-01-28 16:46:00,
2013-01-28 11:51:00,79.2,65.5,30.31,ESE,118,1.0,10.0,63,0.00,,,0.00,meteohub,2013-01-28 16:51:00,
2013-01-28 11:56:00,79.2,65.5,30.31,SE,146,2.0,10.0,63,0.00,,,0.00,meteohub,2013-01-28 16:56:00,
2013-01-28 12:01:00,79.0,65.3,30.31,SE,135,1.0,10.0,63,0.00,,,0.00,meteohub,2013-01-28 17:01:00,
2013-01-28 12:06:00,79.0,65.3,30.30,SE,146,1.0,9.0,63,0.00,,,0.00,meteohub,2013-01-28 17:06:00,
2013-01-28 12:11:00,79.2,65.8,30.30,East,82,1.0,9.0,64,0.00,,,0.00,meteohub,2013-01-28 17:11:00,
2013-01-28 12:16:00,79.3,65.7,30.30,NE,49,3.0,9.0,63,0.00,,,0.00,meteohub,2013-01-28 17:16:00,
2013-01-28 12:21:00,79.7,65.1,30.30,South,190,3.0,9.0,61,0.00,,,0.00,meteohub,2013-01-28 17:21:00,
2013-01-28 12:26:00,79.5,65.8,30.29,SE,138,0.0,8.0,63,0.00,,,0.00,meteohub,2013-01-28 17:26:00,
2013-01-28 12:31:00,79.9,66.6,30.29,NNE,30,2.0,8.0,64,0.00,,,0.00,meteohub,2013-01-28 17:31:00,
2013-01-28 12:37:00,79.9,65.7,30.29,ESE,110,0.0,8.0,62,0.00,,,0.00,meteohub,2013-01-28 17:37:00,
2013-01-28 12:42:00,79.3,65.7,30.29,SE,134,6.0,10.0,63,0.00,,,0.00,meteohub,2013-01-28 17:42:00,
2013-01-28 12:47:00,79.0,65.8,30.28,SSE,148,3.0,10.0,64,0.00,,,0.00,meteohub,2013-01-28 17:47:00,
2013-01-28 12:52:00,79.0,65.8,30.28,SSE,158,4.0,10.0,64,0.00,,,0.00,meteohub,2013-01-28 17:52:00,
2013-01-28 12:57:00,79.0,66.2,30.27,SE,126,4.0,10.0,65,0.00,,,0.00,meteohub,2013-01-28 17:57:00,
2013-01-28 13:02:00,79.5,66.2,30.27,ENE,78,0.0,10.0,64,0.00,,,0.00,meteohub,2013-01-28 18:02:00,
2013-01-28 13:07:00,79.9,66.2,30.27,East,93,1.0,10.0,63,0.00,,,0.00,meteohub,2013-01-28 18:07:00,
2013-01-28 13:12:00,79.7,65.5,30.27,SSE,159,5.0,10.0,62,0.00,,,0.00,meteohub,2013-01-28 18:12:00,
2013-01-28 13:17:00,79.7,66.0,30.26,SSE,159,3.0,10.0,63,0.00,,,0.00,meteohub,2013-01-28 18:17:00,
2013-01-28 13:22:00,79.9,65.7,30.26,ESE,117,1.0,10.0,62,0.00,,,0.00,meteohub,2013-01-28 18:22:00,
2013-01-28 13:27:00,79.9,66.2,30.25,SE,132,2.0,7.0,63,0.00,,,0.00,meteohub,2013-01-28 18:27:00,
2013-01-28 13:32:00,79.9,66.2,30.25,NNE,30,0.0,8.0,63,0.00,,,0.00,meteohub,2013-01-28 18:32:00,
2013-01-28 13:37:00,80.1,65.8,30.25,SW,223,3.0,8.0,62,0.00,,,0.00,meteohub,2013-01-28 18:37:00,
2013-01-28 13:42:00,80.2,65.5,30.25,SSW,207,2.0,8.0,61,0.00,,,0.00,meteohub,2013-01-28 18:42:00,
2013-01-28 13:47:00,79.9,66.2,30.25,SSE,161,4.0,8.0,63,0.00,,,0.00,meteohub,2013-01-28 18:47:00,
2013-01-28 13:52:00,79.5,65.8,30.25,SSW,192,3.0,8.0,63,0.00,,,0.00,meteohub,2013-01-28 18:52:00,
2013-01-28 13:57:00,80.1,66.4,30.25,SE,128,2.0,8.0,63,0.00,,,0.00,meteohub,2013-01-28 18:57:00,
2013-01-28 14:02:00,79.7,66.0,30.25,ESE,102,1.0,8.0,63,0.00,,,0.00,meteohub,2013-01-28 19:02:00,
2013-01-28 14:07:00,79.5,65.3,30.25,ESE,116,0.0,8.0,62,0.00,,,0.00,meteohub,2013-01-28 19:07:00,
2013-01-28 14:12:00,79.7,65.5,30.25,SE,135,0.0,9.0,62,0.00,,,0.00,meteohub,2013-01-28 19:12:00,
2013-01-28 14:17:00,79.5,65.3,30.25,SE,136,2.0,9.0,62,0.00,,,0.00,meteohub,2013-01-28 19:17:00,
2013-01-28 14:22:00,79.3,65.1,30.25,East,89,0.0,9.0,62,0.00,,,0.00,meteohub,2013-01-28 19:22:00,
2013-01-28 14:27:00,79.9,64.8,30.25,SSE,159,2.0,9.0,60,0.00,,,0.00,meteohub,2013-01-28 19:27:00,
2013-01-28 14:32:00,79.5,64.9,30.24,East,92,1.0,9.0,61,0.00,,,0.00,meteohub,2013-01-28 19:32:00,
2013-01-28 14:37:00,79.3,64.2,30.24,SE,136,4.0,9.0,60,0.00,,,0.00,meteohub,2013-01-28 19:37:00,
2013-01-28 14:42:00,79.2,64.0,30.24,SSE,150,2.0,9.0,60,0.00,,,0.00,meteohub,2013-01-28 19:42:00,
2013-01-28 14:47:00,79.2,64.9,30.24,SE,132,0.0,9.0,62,0.00,,,0.00,meteohub,2013-01-28 19:47:00,
2013-01-28 14:52:00,79.3,64.2,30.24,SE,146,1.0,9.0,60,0.00,,,0.00,meteohub,2013-01-28 19:52:00,
2013-01-28 14:57:00,79.2,64.0,30.24,East,94,3.0,8.0,60,0.00,,,0.00,meteohub,2013-01-28 19:57:00,
2013-01-28 15:02:00,79.2,64.0,30.24,South,172,3.0,7.0,60,0.00,,,0.00,meteohub,2013-01-28 20:02:00,
2013-01-28 15:07:00,79.2,64.0,30.24,NE,54,2.0,7.0,60,0.00,,,0.00,meteohub,2013-01-28 20:07:00,
2013-01-28 15:12:00,79.2,64.6,30.24,South,184,1.0,7.0,61,0.00,,,0.00,meteohub,2013-01-28 20:12:00,
2013-01-28 15:17:00,78.8,63.3,30.24,SE,135,5.0,7.0,59,0.00,,,0.00,meteohub,2013-01-28 20:17:00,
2013-01-28 15:22:00,78.4,63.9,30.23,SSE,150,0.0,9.0,61,0.00,,,0.00,meteohub,2013-01-28 20:22:00,
2013-01-28 15:27:00,78.4,63.9,30.23,SSE,165,2.0,9.0,61,0.00,,,0.00,meteohub,2013-01-28 20:27:00,
2013-01-28 15:32:00,78.6,64.6,30.23,North,355,2.0,9.0,62,0.00,,,0.00,meteohub,2013-01-28 20:32:00,
2013-01-28 15:37:00,79.0,65.3,30.23,SE,134,0.0,9.0,63,0.00,,,0.00,meteohub,2013-01-28 20:37:00,
2013-01-28 15:42:00,79.2,65.8,30.23,East,88,0.0,9.0,64,0.00,,,0.00,meteohub,2013-01-28 20:42:00,
2013-01-28 15:47:00,79.2,65.5,30.23,ENE,62,1.0,6.0,63,0.00,,,0.00,meteohub,2013-01-28 20:47:00,
2013-01-28 15:52:00,78.8,65.1,30.23,SE,145,1.0,7.0,63,0.00,,,0.00,meteohub,2013-01-28 20:52:00,
2013-01-28 15:57:00,78.6,64.9,30.23,South,186,5.0,7.0,63,0.00,,,0.00,meteohub,2013-01-28 20:57:00,
2013-01-28 16:02:00,78.3,65.5,30.23,East,87,0.0,7.0,65,0.00,,,0.00,meteohub,2013-01-28 21:02:00,
2013-01-28 16:07:00,78.4,66.2,30.23,ESE,108,0.0,9.0,66,0.00,,,0.00,meteohub,2013-01-28 21:07:00,
2013-01-28 16:12:00,78.3,65.5,30.23,ESE,103,2.0,9.0,65,0.00,,,0.00,meteohub,2013-01-28 21:12:00,
2013-01-28 16:17:00,77.9,65.7,30.23,NE,40,3.0,9.0,66,0.00,,,0.00,meteohub,2013-01-28 21:17:00,
2013-01-28 16:22:00,77.7,65.8,30.23,ESE,103,1.0,7.0,67,0.00,,,0.00,meteohub,2013-01-28 21:22:00,
2013-01-28 16:27:00,77.4,65.5,30.23,ESE,108,4.0,6.0,67,0.00,,,0.00,meteohub,2013-01-28 21:27:00,
2013-01-28 16:32:00,77.4,65.5,30.23,South,180,3.0,5.0,67,0.00,,,0.00,meteohub,2013-01-28 21:32:00,
2013-01-28 16:37:00,76.8,65.5,30.23,SSE,154,0.0,7.0,68,0.00,,,0.00,meteohub,2013-01-28 21:37:00,
2013-01-28 16:42:00,76.6,65.7,30.23,SE,142,4.0,7.0,69,0.00,,,0.00,meteohub,2013-01-28 21:42:00,
2013-01-28 16:47:00,76.5,65.5,30.24,East,96,0.0,9.0,69,0.00,,,0.00,meteohub,2013-01-28 21:47:00,
2013-01-28 16:52:00,76.1,65.1,30.23,SSE,148,2.0,9.0,69,0.00,,,0.00,meteohub,2013-01-28 21:52:00,
2013-01-28 16:57:00,75.9,65.5,30.23,ESE,121,2.0,9.0,70,0.00,,,0.00,meteohub,2013-01-28 21:57:00,
2013-01-28 17:02:00,75.9,65.8,30.23,SE,126,0.0,9.0,71,0.00,,,0.00,meteohub,2013-01-28 22:02:00,
2013-01-28 17:07:00,75.9,66.2,30.23,ESE,109,2.0,9.0,72,0.00,,,0.00,meteohub,2013-01-28 22:07:00,
2013-01-28 17:12:00,75.7,66.0,30.24,ESE,105,2.0,9.0,72,0.00,,,0.00,meteohub,2013-01-28 22:12:00,
2013-01-28 17:17:00,75.6,66.4,30.24,SE,129,2.0,7.0,73,0.00,,,0.00,meteohub,2013-01-28 22:17:00,
2013-01-28 17:22:00,75.4,66.2,30.24,SE,144,1.0,7.0,73,0.00,,,0.00,meteohub,2013-01-28 22:22:00,
2013-01-28 17:27:00,75.2,66.4,30.24,SW,220,2.0,7.0,74,0.00,,,0.00,meteohub,2013-01-28 22:27:00,
2013-01-28 17:32:00,75.0,66.2,30.24,SSE,161,0.0,7.0,74,0.00,,,0.00,meteohub,2013-01-28 22:32:00,
2013-01-28 17:37:00,74.7,65.5,30.24,SSE,156,1.0,4.0,73,0.00,,,0.00,meteohub,2013-01-28 22:37:00,
2013-01-28 17:42:00,74.5,65.7,30.24,ENE,58,0.0,4.0,74,0.00,,,0.00,meteohub,2013-01-28 22:42:00,
2013-01-28 17:47:00,74.3,65.5,30.24,East,84,0.0,4.0,74,0.00,,,0.00,meteohub,2013-01-28 22:47:00,
2013-01-28 17:52:00,74.1,65.7,30.25,ESE,123,1.0,4.0,75,0.00,,,0.00,meteohub,2013-01-28 22:52:00,
2013-01-28 17:57:00,74.1,65.7,30.25,ENE,61,0.0,4.0,75,0.00,,,0.00,meteohub,2013-01-28 22:57:00,
2013-01-28 18:02:00,73.9,65.5,30.25,SE,130,1.0,3.0,75,0.00,,,0.00,meteohub,2013-01-28 23:02:00,
2013-01-28 18:07:00,73.8,65.7,30.25,East,82,0.0,3.0,76,0.00,,,0.00,meteohub,2013-01-28 23:07:00,
2013-01-28 18:12:00,73.8,65.7,30.25,ENE,76,0.0,3.0,76,0.00,,,0.00,meteohub,2013-01-28 23:12:00,
2013-01-28 18:17:00,73.6,65.5,30.25,SE,132,0.0,5.0,76,0.00,,,0.00,meteohub,2013-01-28 23:17:00,
2013-01-28 18:22:00,73.6,65.5,30.25,SE,124,0.0,5.0,76,0.00,,,0.00,meteohub,2013-01-28 23:22:00,
2013-01-28 18:27:00,73.6,65.5,30.25,East,84,0.0,5.0,76,0.00,,,0.00,meteohub,2013-01-28 23:27:00,
2013-01-28 18:32:00,73.4,65.3,30.25,East,88,0.0,5.0,76,0.00,,,0.00,meteohub,2013-01-28 23:32:00,
2013-01-28 18:37:00,73.2,65.7,30.25,East,94,0.0,5.0,77,0.00,,,0.00,meteohub,2013-01-28 23:37:00,
2013-01-28 18:42:00,73.2,65.7,30.25,ENE,78,1.0,5.0,77,0.00,,,0.00,meteohub,2013-01-28 23:42:00,
2013-01-28 18:47:00,73.0,65.5,30.25,East,86,0.0,7.0,77,0.00,,,0.00,meteohub,2013-01-28 23:47:00,
2013-01-28 18:52:00,73.0,65.5,30.25,ESE,117,1.0,7.0,77,0.00,,,0.00,meteohub,2013-01-28 23:52:00,
2013-01-28 18:57:00,73.0,65.5,30.25,NE,55,0.0,7.0,77,0.00,,,0.00,meteohub,2013-01-28 23:57:00,
2013-01-28 19:02:00,73.0,65.5,30.25,NNE,28,2.0,5.0,77,0.00,,,0.00,meteohub,2013-01-29 00:02:00,
2013-01-28 19:07:00,73.0,65.8,30.25,SE,128,3.0,6.0,78,0.00,,,0.00,meteohub,2013-01-29 00:07:00,
2013-01-28 19:12:00,73.0,65.8,30.25,SSE,158,0.0,7.0,78,0.00,,,0.00,meteohub,2013-01-29 00:12:00,
2013-01-28 19:17:00,73.0,65.8,30.25,NNE,29,1.0,7.0,78,0.00,,,0.00,meteohub,2013-01-29 00:17:00,
2013-01-28 19:22:00,73.0,65.8,30.25,SE,144,4.0,8.0,78,0.00,,,0.00,meteohub,2013-01-29 00:22:00,
2013-01-28 19:27:00,73.0,65.5,30.25,East,84,0.0,8.0,77,0.00,,,0.00,meteohub,2013-01-29 00:27:00,
2013-01-28 19:32:00,73.0,65.5,30.25,NE,52,1.0,8.0,77,0.00,,,0.00,meteohub,2013-01-29 00:32:00,
2013-01-28 19:37:00,73.0,65.5,30.25,ESE,111,0.0,7.0,77,0.00,,,0.00,meteohub,2013-01-29 00:37:00,
2013-01-28 19:42:00,73.0,65.8,30.25,NNE,24,0.0,4.0,78,0.00,,,0.00,meteohub,2013-01-29 00:42:00,
2013-01-28 19:47:00,73.2,65.7,30.25,SE,135,1.0,5.0,77,0.00,,,0.00,meteohub,2013-01-29 00:47:00,
2013-01-28 19:52:00,73.2,66.0,30.25,SE,138,0.0,5.0,78,0.00,,,0.00,meteohub,2013-01-29 00:52:00,
2013-01-28 19:57:00,73.2,66.0,30.25,ESE,118,1.0,6.0,78,0.00,,,0.00,meteohub,2013-01-29 00:57:00,
2013-01-28 20:02:00,73.2,66.0,30.25,South,172,3.0,6.0,78,0.00,,,0.00,meteohub,2013-01-29 01:02:00,
2013-01-28 20:07:00,73.2,65.7,30.25,SE,142,3.0,6.0,77,0.00,,,0.00,meteohub,2013-01-29 01:07:00,
2013-01-28 20:12:00,73.4,65.7,30.25,ENE,65,0.0,8.0,77,0.00,,,0.00,meteohub,2013-01-29 01:12:00,
2013-01-28 20:17:00,73.4,65.7,30.25,East,92,0.0,8.0,77,0.00,,,0.00,meteohub,2013-01-29 01:17:00,
2013-01-28 20:22:00,73.6,65.8,30.25,SSE,154,0.0,8.0,77,0.00,,,0.00,meteohub,2013-01-29 01:22:00,
2013-01-28 20:27:00,73.6,65.8,30.25,East,88,0.0,4.0,77,0.00,,,0.00,meteohub,2013-01-29 01:27:00,
2013-01-28 20:32:00,73.6,65.8,30.25,SE,138,0.0,4.0,77,0.00,,,0.00,meteohub,2013-01-29 01:32:00,
2013-01-28 20:38:00,73.6,66.4,30.25,NE,38,0.0,5.0,78,0.00,,,0.00,meteohub,2013-01-29 01:38:00,
2013-01-28 20:43:00,73.6,66.7,30.25,ENE,78,1.0,5.0,79,0.00,,,0.00,meteohub,2013-01-29 01:43:00,
2013-01-28 20:48:00,73.6,66.7,30.26,NW,315,1.0,5.0,79,0.00,,,0.00,meteohub,2013-01-29 01:48:00,
2013-01-28 20:53:00,73.6,67.1,30.26,SE,133,0.0,4.0,80,0.00,,,0.00,meteohub,2013-01-29 01:53:00,
2013-01-28 20:58:00,73.6,66.7,30.26,SSE,162,3.0,4.0,79,0.00,,,0.00,meteohub,2013-01-29 01:58:00,
2013-01-28 21:03:00,73.6,67.1,30.25,NE,37,2.0,4.0,80,0.00,,,0.00,meteohub,2013-01-29 02:03:00,
2013-01-28 21:08:00,73.6,67.1,30.26,South,173,2.0,6.0,80,0.00,,,0.00,meteohub,2013-01-29 02:08:00,
2013-01-28 21:13:00,73.6,66.7,30.26,East,88,1.0,9.0,79,0.00,,,0.00,meteohub,2013-01-29 02:13:00,
2013-01-28 21:18:00,73.6,66.7,30.25,SE,127,1.0,9.0,79,0.00,,,0.00,meteohub,2013-01-29 02:18:00,
2013-01-28 21:23:00,73.8,67.3,30.25,NE,54,1.0,9.0,80,0.00,,,0.00,meteohub,2013-01-29 02:23:00,
2013-01-28 21:28:00,73.8,68.0,30.25,East,91,1.0,6.0,82,0.00,,,0.00,meteohub,2013-01-29 02:28:00,
2013-01-28 21:33:00,73.8,68.0,30.25,ESE,119,0.0,7.0,82,0.00,,,0.00,meteohub,2013-01-29 02:33:00,
2013-01-28 21:38:00,73.6,67.8,30.25,North,355,6.0,7.0,82,0.00,,,0.00,meteohub,2013-01-29 02:38:00,
2013-01-28 21:43:00,73.6,67.8,30.25,East,89,2.0,7.0,82,0.00,,,0.00,meteohub,2013-01-29 02:43:00,
2013-01-28 21:48:00,73.6,67.8,30.25,ESE,111,0.0,7.0,82,0.00,,,0.00,meteohub,2013-01-29 02:48:00,
2013-01-28 21:53:00,73.4,67.6,30.25,East,92,0.0,7.0,82,0.00,,,0.00,meteohub,2013-01-29 02:53:00,
2013-01-28 21:58:00,73.2,67.5,30.25,East,80,0.0,6.0,82,0.00,,,0.00,meteohub,2013-01-29 02:58:00,
2013-01-28 22:03:00,73.4,67.6,30.25,NE,43,1.0,6.0,82,0.00,,,0.00,meteohub,2013-01-29 03:03:00,
2013-01-28 22:08:00,73.4,67.6,30.25,SE,126,0.0,6.0,82,0.00,,,0.00,meteohub,2013-01-29 03:08:00,
2013-01-28 22:13:00,73.4,67.3,30.26,SE,124,4.0,4.0,81,0.00,,,0.00,meteohub,2013-01-29 03:13:00,
2013-01-28 22:18:00,73.4,66.9,30.25,ENE,62,0.0,4.0,80,0.00,,,0.00,meteohub,2013-01-29 03:18:00,
2013-01-28 22:23:00,73.4,66.9,30.25,ESE,105,0.0,5.0,80,0.00,,,0.00,meteohub,2013-01-29 03:23:00,
2013-01-28 22:28:00,73.2,66.7,30.25,ENE,67,2.0,5.0,80,0.00,,,0.00,meteohub,2013-01-29 03:28:00,
2013-01-28 22:33:00,73.2,66.7,30.25,ENE,65,0.0,6.0,80,0.00,,,0.00,meteohub,2013-01-29 03:33:00,
2013-01-28 22:38:00,73.2,67.1,30.25,SE,140,1.0,6.0,81,0.00,,,0.00,meteohub,2013-01-29 03:38:00,
2013-01-28 22:43:00,73.2,67.5,30.25,East,94,1.0,6.0,82,0.00,,,0.00,meteohub,2013-01-29 03:43:00,
2013-01-28 22:48:00,73.0,67.6,30.25,ESE,105,0.0,5.0,83,0.00,,,0.00,meteohub,2013-01-29 03:48:00,
2013-01-28 22:53:00,73.0,68.0,30.25,East,99,2.0,6.0,84,0.00,,,0.00,meteohub,2013-01-29 03:53:00,
2013-01-28 22:58:00,73.0,68.0,30.25,ENE,78,1.0,6.0,84,0.00,,,0.00,meteohub,2013-01-29 03:58:00,
2013-01-28 23:03:00,73.0,67.6,30.25,NE,53,0.0,6.0,83,0.00,,,0.00,meteohub,2013-01-29 04:03:00,
2013-01-28 23:08:00,72.9,67.1,30.25,SE,146,0.0,4.0,82,0.00,,,0.00,meteohub,2013-01-29 04:08:00,
2013-01-28 23:16:00,72.9,67.5,30.25,East,97,0.0,3.0,83,0.00,,,0.00,meteohub,2013-01-29 04:16:00,
2013-01-28 23:21:00,73.0,67.6,30.25,ENE,59,0.0,3.0,83,0.00,,,0.00,meteohub,2013-01-29 04:21:00,
2013-01-28 23:26:00,73.0,67.3,30.25,ENE,75,0.0,3.0,82,0.00,,,0.00,meteohub,2013-01-29 04:26:00,
2013-01-28 23:31:00,73.0,67.3,30.25,SE,124,4.0,4.0,82,0.00,,,0.00,meteohub,2013-01-29 04:31:00,
2013-01-28 23:36:00,73.0,67.3,30.25,East,93,0.0,7.0,82,0.00,,,0.00,meteohub,2013-01-29 04:36:00,
2013-01-28 23:41:00,73.2,67.5,30.25,SE,140,0.0,7.0,82,0.00,,,0.00,meteohub,2013-01-29 04:41:00,
2013-01-28 23:46:00,73.2,67.5,30.24,ESE,106,0.0,7.0,82,0.00,,,0.00,meteohub,2013-01-29 04:46:00,
2013-01-28 23:51:00,73.2,67.1,30.24,SSE,148,1.0,5.0,81,0.00,,,0.00,meteohub,2013-01-29 04:51:00,
2013-01-28 23:56:00,73.4,66.9,30.24,ESE,119,0.0,8.0,80,0.00,,,0.00,meteohub,2013-01-29 04:56:00,